Content
SEND FEEDBACK

Daily
Averages
Monthly
Summary
United States of America

JEWELL, KANSAS


Home > North America > United States > Kansas
Elevation: 1560 feet     Latitude: 39 39N     Longitude: 098 09W

WEATHER
 
SELECT A DAY
Number of Records: 203,776;   Date Range: 1/1/95 - 11/21/14
 
SHARE

PRINT THIS DATA

[ ← Previous Day ]
WEATHER ALMANAC - JANUARY 31, 2013
[ Next Day → ]
[ °C ]   °F
Weather ElementAverageHighLow
Temperature14.5 °F18 °F (7:55 am)6.1 °F (10:55 pm)
Dewpoint5.8 °F12 °F (4:55 am)-0.9 °F (8:55 pm)
Humidity69.3 %88 % (1:55 am)54 % (3:55 pm)
Barometer30.28 in30.50 in (9:55 pm)29.97 in (1:55 am)
Wind Speed9.3 mph21.9 mph (12:55 pm)
Wind Gust28.8 mph (11:25 am)
Weather ElementAverage
Visibility9.4 mi
Wind DirectionWSW (245.4 °)

Weather ElementTotal
Precipitation---
Heating Degree Days53 (Base 65)
Averaged from 24 records on January 31, 2013
WEATHER CONDITIONS BREAKOUT
WIND DIRECTION BREAKOUT
WEATHER BY HOUR - JANUARY 31, 2013
[ °C ]   °F
Local TimeTemperatureDewpointHumidityBarometerVisibilityWind DirectionWind SpeedGust SpeedPrecipitationEventsConditions
1:55 AM12.0 °F9.0 °F88 %29.97 in7.0 miCalmPartly Cloudy
2:55 AM12.0 °F9.0 °F88 %29.99 in7.0 miSW (220°)3.5 mphOvercast
3:55 AM15.1 °F10.9 °F84 %30.01 in8.0 miNW (320°)5.8 mphMostly Cloudy
4:55 AM16.0 °F12.0 °F84 %30.05 in9.0 miNNW (340°)6.9 mphOvercast
5:55 AM17.1 °F12.0 °F81 %30.06 in9.0 miNE (40°)5.8 mphOvercast
6:55 AM17.1 °F12.0 °F81 %30.09 in10.0 miNNE (20°)9.2 mphOvercast
7:55 AM18.0 °F10.9 °F74 %30.14 in9.0 miNNE (20°)8.1 mphOvercast
8:55 AM17.1 °F10.0 °F74 %30.20 in10.0 miNorth (10°)9.2 mphOvercast
9:55 AM17.1 °F8.1 °F68 %30.26 in10.0 miNorth (360°)12.7 mphMostly Cloudy
10:52 AM17.6 °F8.6 °F68 %30.24 in9.0 miNorth (350°)18.4 mphMostly Cloudy
10:55 AM17.1 °F8.1 °F68 %30.32 in9.0 miNorth (360°)20.7 mphOvercast
11:25 AM15.8 °F6.8 °F68 %30.27 in9.0 miNorth (360°)19.6 mph28.8 mphOvercast
11:55 AM16.0 °F6.1 °F65 %30.35 in10.0 miNorth (350°)16.1 mph21.9 mphOvercast
12:55 PM17.1 °F5.0 °F59 %30.35 in9.0 miNNW (340°)21.9 mphClear
2:55 PM17.1 °F3.9 °F56 %30.38 in10.0 miNNW (330°)17.3 mph26.5 mphMostly Cloudy
3:55 PM18.0 °F3.9 °F54 %30.38 in10.0 miNNW (340°)11.5 mph20.7 mphMostly Cloudy
4:55 PM17.1 °F3.9 °F56 %30.40 in10.0 miNorth (350°)8.1 mphOvercast
5:55 PM15.1 °F3.0 °F59 %30.41 in10.0 miNW (320°)3.5 mphClear
6:55 PM12.0 °F0.0 °F59 %30.43 in10.0 miNNW (330°)6.9 mphClear
7:55 PM12.0 °F0.0 °F59 %30.45 in10.0 miNW (320°)4.6 mphClear
8:55 PM8.1 °F-0.9 °F67 %30.49 in10.0 miWSW (240°)3.5 mphClear
9:55 PM10.0 °F-0.9 °F61 %30.50 in10.0 miSW (220°)3.5 mphScattered Clouds
10:55 PM6.1 °F-0.9 °F73 %30.49 in10.0 miSouth (170°)3.5 mphClear
11:55 PM7.0 °F-0.9 °F70 %30.48 in10.0 miSouth (180°)3.5 mphClear
Hourly data recorded from KCNK, located miles away from Jewell, Kansas







STORIES FROM OUR PARTNERS